EW7146 Weather Reports


time (UTC)temp
C
wind
direction
speed
KPH
gust
KPH
rain 1hr
cm
rain 24hr
cm
rain mn
cm
humidity
%
barometer
mb
20260831040252 17 244 0.0 3.2 0.00 0.00 0.00 53 1028.3
20260831035752 17 316 0.0 3.2 0.00 0.00 0.00 53 1028.2
20260831035511 17 289 1.6 6.4 0.00 0.00 0.00 53 1028.2
20260831035003 17 306 3.2 6.4 0.00 0.00 0.00 52 1028.1
20260831034842 17 309 1.6 6.4 0.00 0.00 0.00 53 1028.2
20260831033750 17 333 1.6 8.0 0.00 0.00 0.00 52 1027.9
20260831033252 17 306 3.2 8.0 0.00 0.00 0.00 52 1028.0
20260831032752 17 338 1.6 8.0 0.00 0.00 0.00 51 1027.8
20260831032252 17 296 1.6 8.0 0.00 0.00 0.00 51 1027.8
20260831031751 18 286 1.6 6.4 0.00 0.00 0.00 50 1027.9
20260831031251 18 296 1.6 11.3 0.00 0.00 0.00 50 1027.8
20260831030750 18 302 3.2 11.3 0.00 0.00 0.00 50 1027.7
20260831030251 18 299 1.6 6.4 0.00 0.00 0.00 50 1027.8
20260831025751 18 289 1.6 6.4 0.00 0.00 0.00 50 1027.7
20260831025249 18 331 1.6 16.1 0.00 0.00 0.00 50 1027.6
20260831024751 18 302 3.2 16.1 0.00 0.00 0.00 50 1027.6
20260831024729 18 282 3.2 11.3 0.00 0.00 0.00 50 1027.5
20260831024013 18 296 1.6 11.3 0.00 0.00 0.00 49 1027.5
20260831023250 18 275 3.2 11.3 0.00 0.00 0.00 49 1027.3
20260831022750 18 269 3.2 9.7 0.00 0.00 0.00 49 1027.3
20260831022249 18 309 4.8 8.0 0.00 0.00 0.00 48 1027.3
20260831021747 18 283 3.2 8.0 0.00 0.00 0.00 48 1027.3
20260831021246 19 305 3.2 11.3 0.00 0.00 0.00 48 1027.3
20260831020748 19 306 4.8 16.1 0.00 0.00 0.00 48 1027.2
20260831020512 19 310 4.8 16.1 0.00 0.00 0.00 48 1027.2
20260831015749 19 317 6.4 16.1 0.00 0.00 0.00 47 1027.3
20260831015249 19 312 4.8 16.1 0.00 0.00 0.00 47 1027.2
20260831014749 19 192 4.8 14.5 0.00 0.00 0.00 48 1027.3
20260831014246 20 300 3.2 9.7 0.00 0.00 0.00 47 1027.2
20260831014231 20 313 3.2 17.7 0.00 0.00 0.00 47 1027.1
20260831013506 20 262 4.8 19.3 0.00 0.00 0.00 46 1027.2
20260831012745 20 220 4.8 19.3 0.00 0.00 0.00 46 1027.1
20260831012247 20 257 6.4 24.1 0.00 0.00 0.00 46 1027.1
20260831011750 20 313 6.4 24.1 0.00 0.00 0.00 46 1027.2
20260831011248 20 299 6.4 16.1 0.00 0.00 0.00 45 1027.2
20260831010748 21 293 4.8 8.0 0.00 0.00 0.00 44 1027.1
20260831010248 21 330 3.2 17.7 0.00 0.00 0.00 43 1027.1
20260831005758 21 290 6.4 17.7 0.00 0.00 0.00 43 1027.0
20260831005507 21 283 6.4 19.3 0.00 0.00 0.00 43 1027.0
20260831004749 21 313 6.4 22.5 0.00 0.00 0.00 43 1026.9
20260831004253 21 237 6.4 22.5 0.00 0.00 0.00 43 1026.8
20260831003751 21 244 6.4 16.1 0.00 0.00 0.00 43 1026.7
20260831003248 21 279 4.8 11.3 0.00 0.00 0.00 43 1026.9
20260831002749 21 305 4.8 16.1 0.00 0.00 0.00 43 1027.0
20260831002247 21 285 6.4 16.1 0.00 0.00 0.00 42 1027.0
20260831001747 21 330 6.4 25.7 0.00 0.00 0.00 42 1026.9
20260831001247 22 274 8.0 25.7 0.00 0.00 0.00 41 1026.7
20260831000747 22 300 4.8 16.1 0.00 0.00 0.00 41 1026.8
20260831000248 22 272 4.8 9.7 0.00 0.00 0.00 40 1026.8
20260830235746 22 302 3.2 11.3 0.00 0.00 0.00 41 1026.8
20260830235247 22 331 6.4 11.3 0.00 0.00 0.00 41 1026.7
20260830234746 22 295 3.2 9.7 0.00 0.00 0.00 41 1026.9
20260830234247 22 86 4.8 24.1 0.00 0.00 0.00 41 1026.9
20260830233746 22 298 4.8 24.1 0.00 0.00 0.00 40 1026.9
20260830233507 23 334 3.2 11.3 0.00 0.00 0.00 40 1026.9
20260830232747 23 255 6.4 16.1 0.00 0.00 0.00 37 1026.8
20260830232246 23 327 4.8 19.3 0.00 0.00 0.00 38 1026.8
20260830231746 23 248 3.2 19.3 0.00 0.00 0.00 37 1026.9
20260830231246 23 238 4.8 16.1 0.00 0.00 0.00 38 1026.8
20260830230747 23 298 1.6 17.7 0.00 0.00 0.00 38 1026.9
20260830230251 22 258 3.2 17.7 0.00 0.00 0.00 39 1027.1
20260830230010 22 233 6.4 17.7 0.00 0.00 0.00 38 1027.0
20260830225245 23 344 4.8 9.7 0.00 0.00 0.00 38 1027.0
20260830224745 23 290 3.2 17.7 0.00 0.00 0.00 39 1027.0
20260830224245 23 289 4.8 17.7 0.00 0.00 0.00 37 1027.1
20260830223744 23 329 3.2 11.3 0.00 0.00 0.00 37 1027.0
20260830223246 23 278 4.8 14.5 0.00 0.00 0.00 39 1027.0
20260830222745 23 265 4.8 14.5 0.00 0.00 0.00 39 1026.9
20260830222246 23 305 1.6 6.4 0.00 0.00 0.00 38 1027.0
20260830222001 23 248 1.6 6.4 0.00 0.00 0.00 39 1027.0
20260830221513 23 221 1.6 9.7 0.00 0.00 0.00 39 1027.0
20260830220745 23 266 1.6 11.3 0.00 0.00 0.00 39 1027.1
20260830220244 23 300 3.2 16.1 0.00 0.00 0.00 39 1027.3
20260830215744 23 298 1.6 16.1 0.00 0.00 0.00 38 1027.2
20260830215249 23 343 3.2 9.7 0.00 0.00 0.00 37 1027.3
20260830214745 23 309 3.2 16.1 0.00 0.00 0.00 39 1027.5
20260830214504 23 237 3.2 16.1 0.00 0.00 0.00 38 1027.5
20260830213750 23 293 3.2 11.3 0.00 0.00 0.00 38 1027.3
20260830213724 23 298 1.6 8.0 0.00 0.00 0.00 39 1027.5
20260830212743 22 303 1.6 16.1 0.00 0.00 0.00 39 1027.5
20260830212244 22 296 1.6 22.5 0.00 0.00 0.00 40 1027.6
20260830211743 22 247 9.7 22.5 0.00 0.00 0.00 37 1027.6
20260830211243 22 245 0.0 17.7 0.00 0.00 0.00 39 1027.7
20260830210742 22 228 8.0 17.7 0.00 0.00 0.00 37 1027.7
20260830210506 22 282 3.2 14.5 0.00 0.00 0.00 39 1027.8
20260830205742 22 262 4.8 14.5 0.00 0.00 0.00 38 1027.7
20260830205508 21 299 3.2 14.5 0.00 0.00 0.00 39 1027.7
20260830204742 21 271 4.8 14.5 0.00 0.00 0.00 38 1027.7
20260830204244 21 336 6.4 14.5 0.00 0.00 0.00 39 1027.8
20260830203742 21 223 1.6 9.7 0.00 0.00 0.00 38 1027.8
20260830203242 21 307 1.6 9.7 0.00 0.00 0.00 40 1027.9
20260830202743 22 251 3.2 17.7 0.00 0.00 0.00 38 1027.8
20260830202242 22 306 1.6 17.7 0.00 0.00 0.00 37 1027.8
20260830201743 23 18 3.2 9.7 0.00 0.00 0.00 38 1027.9
20260830201242 22 298 0.0 16.1 0.00 0.00 0.00 37 1027.9
20260830200743 22 276 3.2 16.1 0.00 0.00 0.00 36 1028.0
20260830200241 22 292 3.2 9.7 0.00 0.00 0.00 38 1028.0
20260830195741 22 38 3.2 19.3 0.00 0.00 0.00 38 1028.0
20260830195241 22 292 4.8 19.3 0.00 0.00 0.00 38 1028.0
20260830194741 22 295 3.2 17.7 0.00 0.00 0.00 39 1028.0
20260830194242 22 306 4.8 11.3 0.00 0.00 0.00 38 1028.1
20260830193741 22 327 4.8 11.3 0.00 0.00 0.00 39 1028.1
20260830193243 22 290 3.2 11.3 0.00 0.00 0.00 38 1028.2
20260830192741 22 324 3.2 11.3 0.00 0.00 0.00 37 1028.2
20260830192243 21 226 3.2 9.7 0.00 0.00 0.00 38 1028.3
20260830191740 21 305 1.6 17.7 0.00 0.00 0.00 38 1028.3
20260830191240 21 299 6.4 17.7 0.00 0.00 0.00 37 1028.4
20260830190745 21 16 0.0 11.3 0.00 0.00 0.00 40 1028.4
20260830190239 21 283 3.2 16.1 0.00 0.00 0.00 39 1028.4
20260830185741 21 306 3.2 16.1 0.00 0.00 0.00 40 1028.4
20260830185241 21 254 1.6 17.7 0.00 0.00 0.00 40 1028.5
20260830184741 21 302 6.4 17.7 0.00 0.00 0.00 39 1028.5
20260830184239 20 272 1.6 11.3 0.00 0.00 0.00 40 1028.6
20260830184004 20 299 1.6 9.7 0.00 0.00 0.00 41 1028.7
20260830183240 20 306 3.2 17.7 0.00 0.00 0.00 43 1028.7
20260830182739 20 302 0.0 17.7 0.00 0.00 0.00 42 1028.7
20260830182502 20 279 3.2 9.7 0.00 0.00 0.00 41 1028.9
20260830181745 20 302 3.2 9.7 0.00 0.00 0.00 43 1028.7
20260830181739 20 300 3.2 9.7 0.00 0.00 0.00 43 1028.8
20260830180739 20 23 3.2 8.0 0.00 0.00 0.00 42 1028.7
20260830180240 20 320 4.8 8.0 0.00 0.00 0.00 43 1028.9
20260830175741 19 286 1.6 8.0 0.00 0.00 0.00 45 1028.8
20260830175238 19 302 4.8 14.5 0.00 0.00 0.00 44 1028.9
20260830174739 18 309 3.2 14.5 0.00 0.00 0.00 46 1028.8
20260830174505 18 310 3.2 8.0 0.00 0.00 0.00 46 1028.8
20260830173739 18 309 1.6 16.1 0.00 0.00 0.00 49 1028.8
20260830173238 17 305 3.2 16.1 0.00 0.00 0.00 48 1028.9
20260830172744 17 248 3.2 8.0 0.00 0.00 0.00 48 1028.8
20260830172238 17 13 3.2 9.7 0.00 0.00 0.00 50 1028.8
20260830171739 17 310 3.2 9.7 0.00 0.00 0.00 50 1028.8
20260830171237 17 306 4.8 8.0 0.00 0.00 0.00 51 1028.8
20260830170957 16 336 3.2 8.0 0.00 0.00 0.00 54 1028.7
20260830170245 16 341 0.0 4.8 0.00 0.00 0.00 59 1028.9
20260830165737 15 92 0.0 4.8 0.00 0.00 0.00 60 1028.9
20260830165237 15 59 0.0 4.8 0.00 0.03 0.00 60 1028.9
20260830164736 15 65 0.0 4.8 0.00 0.03 0.00 64 1028.9
20260830164238 14 107 0.0 6.4 0.00 0.03 0.00 66 1028.9
20260830163944 13 111 0.0 4.8 0.00 0.08 0.00 69 1028.9
20260830163832 13 59 0.0 6.4 0.00 0.05 0.00 67 1028.9
20260830162738 13 127 1.6 6.4 0.00 0.10 0.00 69 1029.1
20260830162236 13 73 3.2 6.4 0.00 0.13 0.00 70 1029.1
20260830161744 13 103 1.6 6.4 0.00 0.18 0.00 70 1028.9
20260830161235 12 131 0.0 6.4 0.00 0.18 0.00 70 1029.1
20260830160738 12 68 1.6 6.4 0.00 0.20 0.00 70 1028.9
20260830160459 12 86 1.6 6.4 0.00 0.20 0.00 72 1028.9
20260830155959 12 65 3.2 6.4 0.00 0.20 0.00 72 1029.1
20260830155236 12 85 0.0 4.8 0.00 0.23 0.00 74 1028.9
20260830154740 11 39 1.6 4.8 0.00 0.23 0.00 73 1029.1
20260830154235 11 86 0.0 4.8 0.00 0.23 0.00 76 1029.1
20260830153736 11 83 0.0 4.8 0.00 0.23 0.00 76 1029.2
20260830153236 10 72 1.6 4.8 0.00 0.23 0.00 75 1029.2
20260830152736 10 73 0.0 3.2 0.00 0.23 0.00 78 1029.2
20260830152238 10 118 0.0 1.6 0.00 0.23 0.00 79 1029.3
20260830152005 9 68 0.0 1.6 0.00 0.23 0.00 80 1029.3
20260830151236 9 61 0.0 0.0 0.00 0.23 0.00 81 1029.3
20260830150735 8 90 0.0 0.0 0.00 0.23 0.00 82 1029.3
20260830150236 8 111 0.0 0.0 0.00 0.23 0.00 84 1029.3
20260830145734 8 111 0.0 0.0 0.00 0.23 0.00 84 1029.4
20260830145234 8 120 0.0 0.0 0.00 0.23 0.00 84 1029.4
20260830144734 8 87 0.0 0.0 0.00 0.23 0.00 85 1029.3
20260830144235 8 87 0.0 0.0 0.00 0.23 0.00 85 1029.4
20260830143736 7 87 0.0 0.0 0.00 0.23 0.00 85 1029.4
20260830143504 7 87 0.0 0.0 0.00 0.23 0.00 86 1029.5
20260830142738 7 87 0.0 0.0 0.00 0.23 0.00 86 1029.4
20260830142233 7 87 0.0 0.0 0.00 0.25 0.00 87 1029.4
20260830141733 7 87 0.0 0.0 0.00 0.25 0.00 87 1029.3
20260830141233 7 87 0.0 0.0 0.00 0.33 0.00 86 1029.2
20260830140733 7 87 0.0 0.0 0.00 0.43 0.00 85 1029.1
20260830140234 7 87 0.0 0.0 0.00 0.43 0.00 86 1029.2
20260830135732 6 87 0.0 0.0 0.00 0.43 0.00 86 1029.2
20260830135457 6 79 0.0 0.0 0.00 0.43 0.00 86 1029.1
20260830134733 6 79 0.0 0.0 0.00 0.43 0.00 86 1029.1
20260830134234 6 78 0.0 0.0 0.00 0.43 0.00 85 1029.2
20260830133737 6 78 0.0 0.0 0.00 0.43 0.00 83 1029.2
20260830133455 7 79 0.0 0.0 0.00 0.43 0.00 84 1029.1
20260830132733 7 75 0.0 0.0 0.00 0.43 0.00 84 1029.1
20260830132231 6 117 0.0 0.0 0.00 0.43 0.00 86 1029.1
20260830131733 6 116 0.0 0.0 0.00 0.43 0.00 87 1028.9
20260830131234 6 175 0.0 0.0 0.00 0.43 0.00 87 1029.1
20260830130734 6 141 0.0 0.0 0.00 0.43 0.00 87 1029.1
20260830130454 5 231 0.0 0.0 0.00 0.43 0.00 87 1029.2
20260830125733 5 231 0.0 0.0 0.00 0.43 0.00 87 1029.1
20260830125231 5 231 0.0 0.0 0.00 0.43 0.00 87 1029.1
20260830124731 5 247 0.0 0.0 0.00 0.43 0.00 86 1029.1
20260830124232 5 247 0.0 0.0 0.00 0.43 0.00 86 1029.1
20260830123732 5 247 0.0 0.0 0.00 0.43 0.00 86 1029.1
20260830123232 5 166 0.0 0.0 0.00 0.43 0.00 85 1029.1
20260830122730 5 166 0.0 0.0 0.00 0.43 0.00 85 1029.1
20260830122232 5 157 0.0 0.0 0.00 0.43 0.00 85 1028.9
20260830121733 6 157 0.0 0.0 0.00 0.43 0.00 83 1028.9
20260830121452 6 155 0.0 0.0 0.00 0.43 0.00 82 1028.9
20260830120731 6 157 0.0 0.0 0.00 0.43 0.00 82 1029.1
20260830120230 6 157 0.0 0.0 0.00 0.43 0.00 83 1029.1
20260830115731 6 173 0.0 0.0 0.00 0.43 0.00 83 1028.9
20260830115230 6 159 0.0 0.0 0.00 0.43 0.00 83 1028.9
20260830114731 6 154 0.0 0.0 0.00 0.43 0.00 83 1028.9
20260830114231 6 154 0.0 0.0 0.00 0.43 0.00 83 1028.9
20260830113732 6 154 0.0 0.0 0.00 0.43 0.00 83 1028.9
20260830113230 6 154 0.0 0.0 0.00 0.43 0.00 83 1029.1
20260830112731 6 154 0.0 0.0 0.00 0.43 0.00 83 1028.8
20260830112230 6 154 0.0 0.0 0.00 0.43 0.00 81 1028.9
20260830111734 7 154 0.0 0.0 0.00 0.43 0.00 81 1028.8
20260830111231 7 151 0.0 0.0 0.00 0.43 0.00 81 1028.8
20260830110729 7 151 0.0 0.0 0.00 0.43 0.00 83 1028.8
20260830110230 6 152 0.0 0.0 0.00 0.43 0.00 83 1028.9
20260830105728 6 102 0.0 0.0 0.00 0.43 0.00 83 1028.9
20260830105230 7 102 0.0 0.0 0.00 0.43 0.00 82 1028.9
20260830104728 7 102 0.0 0.0 0.00 0.43 0.00 81 1028.8
20260830104234 7 102 0.0 0.0 0.00 0.43 0.00 80 1028.8
20260830103729 7 102 0.0 0.0 0.00 0.43 0.00 81 1028.9
20260830103228 7 102 0.0 0.0 0.00 0.43 0.00 79 1028.8
20260830102957 7 102 0.0 0.0 0.00 0.43 0.00 80 1028.8
20260830102716 7 102 0.0 0.0 0.00 0.43 0.00 79 1028.8
20260830101952 7 102 0.0 0.0 0.00 0.43 0.00 78 1028.8
20260830101228 8 102 0.0 0.0 0.00 0.43 0.00 77 1028.9
20260830100729 8 102 0.0 0.0 0.00 0.43 0.00 77 1028.8
20260830100227 8 102 0.0 0.0 0.00 0.43 0.00 76 1028.7
20260830095727 8 127 0.0 0.0 0.00 0.43 0.00 75 1028.6
20260830095451 8 165 0.0 0.0 0.00 0.43 0.00 75 1028.6
20260830094724 8 173 0.0 0.0 0.00 0.43 0.00 75 1028.6
20260830094228 8 173 0.0 0.0 0.00 0.43 0.00 75 1028.6
20260830093727 8 159 0.0 0.0 0.00 0.43 0.00 74 1028.5
20260830093230 8 226 0.0 0.0 0.00 0.43 0.00 75 1028.5
20260830092727 8 329 0.0 1.6 0.00 0.43 0.00 74 1028.5
20260830092229 8 128 0.0 1.6 0.00 0.43 0.00 74 1028.6
20260830091727 8 97 0.0 0.0 0.00 0.43 0.00 71 1028.7
20260830091227 8 116 0.0 0.0 0.00 0.43 0.00 73 1028.6
20260830090727 8 56 0.0 0.0 0.00 0.43 0.00 73 1028.6
20260830090227 9 52 0.0 0.0 0.00 0.43 0.00 70 1028.6
20260830085727 10 102 0.0 0.0 0.00 0.43 0.00 67 1028.5
20260830085230 10 123 0.0 0.0 0.00 0.43 0.00 67 1028.5
20260830084946 11 109 0.0 1.6 0.00 0.43 0.00 66 1028.5
20260830084443 11 38 0.0 11.3 0.00 0.43 0.00 63 1028.6
20260830083727 12 258 0.0 11.3 0.00 0.43 0.00 63 1028.5
20260830083226 11 264 0.0 11.3 0.00 0.43 0.00 62 1028.5
20260830082725 11 250 1.6 6.4 0.00 0.43 0.00 62 1028.5
20260830082447 11 248 1.6 4.8 0.00 0.43 0.00 62 1028.5
20260830081721 11 250 0.0 3.2 0.00 0.43 0.00 63 1028.6
20260830081444 11 250 1.6 4.8 0.00 0.43 0.00 60 1028.5
20260830080946 12 292 0.0 4.8 0.00 0.43 0.00 59 1028.4
20260830080443 12 250 0.0 1.6 0.00 0.43 0.00 58 1028.4
20260830075725 12 237 0.0 9.7 0.00 0.43 0.00 59 1028.4
20260830075444 13 237 0.0 9.7 0.00 0.43 0.00 55 1028.4
20260830074727 13 259 0.0 6.4 0.00 0.43 0.00 55 1028.4
20260830074225 13 252 0.0 8.0 0.00 0.43 0.00 55 1028.3
20260830073722 13 252 3.2 9.7 0.00 0.43 0.00 54 1028.4
20260830073223 13 281 0.0 11.3 0.00 0.43 0.00 55 1028.5
20260830072725 13 276 1.6 11.3 0.00 0.43 0.00 55 1028.4
20260830072224 12 247 4.8 9.7 0.00 0.43 0.00 56 1028.4
20260830071726 12 233 0.0 6.4 0.00 0.43 0.00 56 1028.5
20260830071225 13 251 0.0 6.4 0.00 0.43 0.00 55 1028.4
20260830070724 13 295 0.0 6.4 0.00 0.43 0.00 54 1028.4
20260830070224 13 290 1.6 14.5 0.00 0.43 0.00 53 1028.3
20260830065721 13 228 4.8 14.5 0.00 0.43 0.43 53 1028.4
20260830065222 13 265 4.8 8.0 0.00 0.43 0.43 54 1028.4
20260830064723 13 247 3.2 8.0 0.00 0.43 0.43 54 1028.3
20260830064235 13 245 1.6 9.7 0.00 0.43 0.43 54 1028.4
20260830063950 13 252 0.0 9.7 0.00 0.43 0.43 54 1028.4
20260830063224 13 282 4.8 9.7 0.00 0.43 0.43 54 1028.4
20260830062728 13 258 0.0 8.0 0.00 0.43 0.43 54 1028.4
20260830062443 13 247 3.2 8.0 0.00 0.43 0.43 54 1028.3
20260830061940 13 292 3.2 9.7 0.00 0.43 0.43 54 1028.3
20260830061444 13 278 1.6 9.7 0.00 0.43 0.43 54 1028.3
20260830060723 13 244 0.0 8.0 0.00 0.43 0.43 53 1028.3
20260830060223 13 272 4.8 9.7 0.00 0.43 0.43 53 1028.4
20260830055722 13 248 4.8 9.7 0.00 0.43 0.43 53 1028.3
20260830055222 13 235 1.6 9.7 0.00 0.43 0.43 54 1028.3
20260830054724 13 255 0.0 8.0 0.00 0.43 0.43 54 1028.4
20260830054222 13 271 0.0 9.7 0.00 0.43 0.43 54 1028.4
20260830053722 13 281 3.2 9.7 0.00 0.43 0.43 53 1028.6
20260830053222 13 265 1.6 9.7 0.00 0.43 0.43 54 1028.6
20260830052722 13 298 3.2 8.0 0.00 0.43 0.43 54 1028.6
20260830052219 13 274 1.6 8.0 0.00 0.43 0.43 54 1028.5
20260830051721 13 282 1.6 8.0 0.00 0.43 0.43 55 1028.6
20260830051223 13 241 1.6 6.4 0.00 0.43 0.43 54 1028.6
20260830050722 14 269 0.0 14.5 0.00 0.43 0.43 53 1028.6
20260830050222 14 258 6.4 14.5 0.00 0.43 0.43 52 1028.7
20260830050200 14 238 3.2 14.5 0.00 0.43 0.43 53 1028.6
20260830045704 13 219 4.8 11.3 0.00 0.43 0.43 53 1028.6
20260830044718 14 307 3.2 17.7 0.00 0.43 0.43 54 1028.7
20260830044216 13 240 4.8 17.7 0.00 0.43 0.43 54 1028.7
20260830043718 13 245 1.6 16.1 0.00 0.43 0.43 54 1028.6
20260830043221 13 314 1.6 16.1 0.00 0.43 0.43 54 1028.5
20260830042441 13 298 3.2 8.0 0.00 0.43 0.43 55 1028.4
20260830041721 14 240 1.6 8.0 0.00 0.43 0.43 54 1028.3
20260830041220 14 250 3.2 6.4 0.00 0.43 0.43 54 1028.2
20260830040720 14 276 3.2 6.4 0.00 0.43 0.43 54 1028.2